MAS8004 OEMA-WMKK

Flight info

Callsign MAS8004
Flight time N/A
Altitude 37000
Route MEDRO J852 BDB Y214 KUTNA M440 TULBU M628 TOLDA L555 TOTOX P574 PUGER
Aircraft A388/J-SADE2E3FGHIJ3J4J5M1RWXY/LB1D1

Departure

Time 2026-05-09 11:06
Airport Prince Mohammad Bin Abdulaziz Airport (OEMA)

Arrival

Time N/A
Airport Kuala Lumpur International Airport (WMKK)
Time Latitude Longitude Altitude Speed Heading
2026-05-09 09:53 24.56186 39.71127 2110 ft 0 kts 79°
2026-05-09 10:55 24.56183 39.71110 2111 ft 4 kts 79°
2026-05-09 10:55 24.56176 39.71071 2110 ft 4 kts 78°
2026-05-09 10:56 24.56173 39.71055 2113 ft 4 kts 69°
2026-05-09 10:56 24.56159 39.71038 2112 ft 4 kts
2026-05-09 10:56 24.56132 39.71040 2112 ft 4 kts 349°
2026-05-09 10:56 24.56125 39.71042 2112 ft 1 kts 349°
2026-05-09 11:00 24.56133 39.71040 2112 ft 3 kts 351°
2026-05-09 11:00 24.56171 39.71033 2113 ft 8 kts 349°
2026-05-09 11:00 24.56237 39.71019 2110 ft 11 kts 349°
2026-05-09 11:01 24.56326 39.71001 2110 ft 15 kts 349°
2026-05-09 11:01 24.56415 39.70981 2110 ft 11 kts 339°
2026-05-09 11:01 24.56441 39.70929 2110 ft 10 kts 273°
2026-05-09 11:01 24.56436 39.70843 2111 ft 14 kts 261°
2026-05-09 11:02 24.56444 39.70792 2112 ft 7 kts 307°
2026-05-09 11:02 24.56482 39.70769 2112 ft 9 kts 345°
2026-05-09 11:02 24.56568 39.70751 2112 ft 16 kts 350°
2026-05-09 11:02 24.56702 39.70724 2112 ft 23 kts 349°
2026-05-09 11:03 24.56873 39.70689 2111 ft 26 kts 349°
2026-05-09 11:03 24.57043 39.70654 2111 ft 25 kts 349°
2026-05-09 11:03 24.57209 39.70619 2111 ft 24 kts 349°
2026-05-09 11:03 24.57370 39.70584 2111 ft 23 kts 349°
2026-05-09 11:04 24.57519 39.70552 2112 ft 14 kts 348°
2026-05-09 11:04 24.57616 39.70526 2112 ft 13 kts 324°
2026-05-09 11:04 24.57646 39.70448 2114 ft 11 kts 262°
2026-05-09 11:04 24.57630 39.70373 2117 ft 8 kts 237°
2026-05-09 11:05 24.57583 39.70346 2116 ft 9 kts 184°
2026-05-09 11:05 24.57533 39.70354 2115 ft 5 kts 167°
2026-05-09 11:05 24.57444 39.70375 2115 ft 32 kts 168°
2026-05-09 11:05 24.56956 39.70483 2115 ft 111 kts 168°
2026-05-09 11:06 24.55988 39.70686 2117 ft 167 kts 169°
2026-05-09 11:06 24.54748 39.70929 2341 ft 183 kts 166°
2026-05-09 11:06 24.53575 39.71215 3205 ft 169 kts 156°
2026-05-09 11:06 24.52747 39.72108 3573 ft 180 kts 112°
2026-05-09 11:07 24.52683 39.73478 4044 ft 185 kts 71°
2026-05-09 11:07 24.53249 39.74725 4639 ft 181 kts 59°
2026-05-09 11:07 24.53923 39.75919 5011 ft 186 kts 59°
2026-05-09 11:07 24.54595 39.77145 5378 ft 189 kts 62°
2026-05-09 11:08 24.55154 39.78506 5523 ft 203 kts 71°
2026-05-09 11:08 24.55550 39.80040 5628 ft 214 kts 88°
2026-05-09 11:08 24.55443 39.81685 5726 ft 221 kts 99°
2026-05-09 11:08 24.55233 39.83392 5793 ft 229 kts 100°
2026-05-09 11:09 24.55010 39.85150 5849 ft 236 kts 100°
2026-05-09 11:09 24.54784 39.86961 5905 ft 242 kts 99°
2026-05-09 11:09 24.54558 39.88833 5958 ft 256 kts 99°
2026-05-09 11:09 24.54319 39.90835 6117 ft 275 kts 99°
2026-05-09 11:10 24.54065 39.92988 6436 ft 288 kts 98°
2026-05-09 11:10 24.53808 39.95183 7003 ft 291 kts 99°
2026-05-09 11:10 24.53550 39.97384 7616 ft 292 kts 99°
2026-05-09 11:10 24.53291 39.99583 8206 ft 295 kts 99°
2026-05-09 11:11 24.53025 40.01823 8817 ft 297 kts 99°
2026-05-09 11:11 24.52755 40.04085 9423 ft 300 kts 99°
2026-05-09 11:11 24.52484 40.06366 10052 ft 302 kts 100°
2026-05-09 11:11 24.52205 40.08702 10350 ft 317 kts 100°
2026-05-09 11:12 24.51907 40.11172 10512 ft 334 kts 100°
2026-05-09 11:12 24.51599 40.13738 10674 ft 350 kts 99°
2026-05-09 11:12 24.51279 40.16415 11107 ft 356 kts 99°
2026-05-09 11:12 24.50958 40.19118 11637 ft 359 kts 100°
2026-05-09 11:13 24.50632 40.21849 12182 ft 362 kts 100°
2026-05-09 11:13 24.50301 40.24612 12695 ft 367 kts 100°
2026-05-09 11:13 24.49965 40.27403 13235 ft 371 kts 100°
2026-05-09 11:13 24.49624 40.30227 13747 ft 375 kts 100°
2026-05-09 11:14 24.49279 40.33085 14235 ft 379 kts 100°
2026-05-09 11:14 24.48930 40.35970 14713 ft 383 kts 100°
2026-05-09 11:14 24.48576 40.38887 15190 ft 386 kts 100°
2026-05-09 11:14 24.48220 40.41823 15668 ft 390 kts 100°
2026-05-09 11:15 24.47860 40.44788 16160 ft 393 kts 100°
2026-05-09 11:15 24.47502 40.47727 16621 ft 396 kts 100°
2026-05-09 11:15 24.47135 40.50743 17089 ft 400 kts 100°
2026-05-09 11:15 24.46763 40.53786 17546 ft 404 kts 100°
2026-05-09 11:16 24.46387 40.56859 17999 ft 407 kts 100°
2026-05-09 11:16 24.46236 40.58087 18170 ft 409 kts 100°
2026-05-09 11:16 24.46373 40.60963 17798 ft 431 kts 75°
2026-05-09 11:17 24.47303 40.64224 17521 ft 453 kts 76°
2026-05-09 11:17 24.47754 40.67617 18184 ft 444 kts 91°
2026-05-09 11:17 24.47433 40.70897 19198 ft 423 kts 107°
2026-05-09 11:17 24.46457 40.73866 19953 ft 412 kts 118°
2026-05-09 11:18 24.45288 40.76763 20284 ft 417 kts 115°
2026-05-09 11:18 24.44369 40.79791 20693 ft 421 kts 108°
2026-05-09 11:18 24.43736 40.82940 21087 ft 425 kts 103°
2026-05-09 11:18 24.43288 40.86171 21483 ft 428 kts 100°
2026-05-09 11:19 24.42928 40.89432 21863 ft 431 kts 99°
2026-05-09 11:19 24.42598 40.92707 22246 ft 434 kts 99°
2026-05-09 11:19 24.42273 40.95966 22627 ft 436 kts 99°
2026-05-09 11:19 24.41934 40.99318 23006 ft 439 kts 99°
2026-05-09 11:20 24.41594 41.02624 23381 ft 441 kts 99°
2026-05-09 11:20 24.41247 41.05972 23724 ft 444 kts 99°
2026-05-09 11:20 24.40895 41.09347 24048 ft 446 kts 99°
2026-05-09 11:20 24.40540 41.12741 24351 ft 449 kts 99°
2026-05-09 11:21 24.40183 41.16148 24669 ft 451 kts 99°
2026-05-09 11:21 24.39823 41.19579 24994 ft 453 kts 99°
2026-05-09 11:21 24.39461 41.23019 25318 ft 456 kts 99°
2026-05-09 11:21 24.39095 41.26489 25633 ft 459 kts 100°
2026-05-09 11:22 24.38726 41.29976 25983 ft 461 kts 100°
2026-05-09 11:22 24.38355 41.33477 26325 ft 464 kts 100°
2026-05-09 11:22 24.37980 41.37006 26697 ft 467 kts 100°
2026-05-09 11:22 24.37603 41.40555 27031 ft 470 kts 100°
2026-05-09 11:23 24.37222 41.44125 27416 ft 472 kts 100°
2026-05-09 11:23 24.36838 41.47711 27774 ft 476 kts 100°
2026-05-09 11:23 24.36451 41.51330 28137 ft 479 kts 100°
2026-05-09 11:23 24.36060 41.54969 28505 ft 482 kts 100°
2026-05-09 11:24 24.35671 41.58581 28886 ft 485 kts 101°
2026-05-09 11:24 24.35274 41.62264 29240 ft 488 kts 101°
2026-05-09 11:24 24.34872 41.65976 29607 ft 491 kts 101°
2026-05-09 11:24 24.34467 41.69715 29990 ft 494 kts 101°
2026-05-09 11:25 24.34059 41.73471 30339 ft 497 kts 101°
2026-05-09 11:25 24.33649 41.77243 30660 ft 500 kts 101°
2026-05-09 11:25 24.33219 41.81043 30970 ft 502 kts 103°
2026-05-09 11:25 24.32494 41.84778 31284 ft 500 kts 111°
2026-05-09 11:26 24.31508 41.88444 31589 ft 502 kts 111°
2026-05-09 11:26 24.30532 41.92127 31894 ft 505 kts 111°
2026-05-09 11:26 24.29555 41.95845 32205 ft 508 kts 112°
2026-05-09 11:26 24.28575 41.99583 32490 ft 511 kts 112°
2026-05-09 11:27 24.27588 42.03338 32778 ft 514 kts 112°
2026-05-09 11:27 24.26597 42.07100 33097 ft 517 kts 112°
2026-05-09 11:27 24.25591 42.10913 33398 ft 520 kts 113°
2026-05-09 11:27 24.24584 42.14726 33702 ft 523 kts 113°
2026-05-09 11:28 24.23568 42.18568 34022 ft 525 kts 113°
2026-05-09 11:28 24.22549 42.22415 34318 ft 527 kts 113°
2026-05-09 11:28 24.21525 42.26279 34631 ft 529 kts 113°
2026-05-09 11:28 24.20497 42.30154 34957 ft 530 kts 114°
2026-05-09 11:29 24.19469 42.34029 35339 ft 529 kts 114°
2026-05-09 11:29 24.18455 42.37848 35759 ft 528 kts 114°
2026-05-09 11:29 24.17431 42.41696 36150 ft 527 kts 114°
2026-05-09 11:29 24.16405 42.45547 36546 ft 526 kts 114°
2026-05-09 11:30 24.15380 42.49386 36920 ft 525 kts 114°
2026-05-09 11:30 24.14348 42.53242 37039 ft 531 kts 114°
2026-05-09 11:30 24.13310 42.57116 37032 ft 528 kts 114°
2026-05-09 11:31 24.11248 42.64819 37032 ft 528 kts 114°
2026-05-09 11:31 24.09174 42.72542 37037 ft 530 kts 114°
2026-05-09 11:32 24.07094 42.80273 37033 ft 529 kts 114°
2026-05-09 11:32 24.05013 42.87994 37029 ft 528 kts 114°
2026-05-09 11:33 24.02929 42.95702 37047 ft 528 kts 114°
2026-05-09 11:33 23.99791 43.07265 37003 ft 529 kts 113°
2026-05-09 11:34 23.97692 43.14991 37021 ft 530 kts 113°
2026-05-09 11:34 23.95584 43.22734 37035 ft 532 kts 113°
2026-05-09 11:35 23.93464 43.30500 37069 ft 534 kts 113°
2026-05-09 11:35 23.91347 43.38242 37075 ft 535 kts 113°
2026-05-09 11:36 23.89236 43.45940 37046 ft 539 kts 113°
2026-05-09 11:36 23.87049 43.53881 37057 ft 548 kts 113°
2026-05-09 11:37 23.84857 43.61858 37052 ft 547 kts 113°
2026-05-09 11:37 23.82664 43.69812 37036 ft 546 kts 113°
2026-05-09 11:38 23.80464 43.77764 37029 ft 546 kts 112°
2026-05-09 11:38 23.78277 43.85693 37022 ft 546 kts 111°
2026-05-09 11:39 23.76989 43.93888 37014 ft 556 kts 99°
2026-05-09 11:40 23.76088 44.06514 37008 ft 556 kts 99°
2026-05-09 11:40 23.75457 44.14916 37010 ft 556 kts 99°
2026-05-09 11:41 23.74823 44.23319 37015 ft 555 kts 99°
2026-05-09 11:41 23.74293 44.30294 37016 ft 555 kts 99°
2026-05-09 11:42 23.73542 44.40127 37020 ft 555 kts 99°
2026-05-09 11:42 23.73006 44.47102 37022 ft 555 kts 99°
2026-05-09 11:43 23.72355 44.55504 37020 ft 556 kts 99°
2026-05-09 11:43 23.71699 44.63915 37023 ft 556 kts 99°
2026-05-09 11:44 23.71038 44.72334 37021 ft 557 kts 99°
2026-05-09 11:44 23.70373 44.80742 37018 ft 557 kts 99°
2026-05-09 11:45 23.69701 44.89182 37016 ft 558 kts 99°
2026-05-09 11:45 23.69023 44.97628 37015 ft 559 kts 99°
2026-05-09 11:46 23.68344 45.06024 37020 ft 560 kts 99°
2026-05-09 11:46 23.67656 45.14493 37015 ft 560 kts 99°
2026-05-09 11:47 23.66963 45.22958 37011 ft 561 kts 99°
2026-05-09 11:47 23.66264 45.31438 37003 ft 561 kts 99°
2026-05-09 11:48 23.65560 45.39916 37003 ft 562 kts 99°
2026-05-09 11:48 23.64851 45.48411 36995 ft 563 kts 99°
2026-05-09 11:49 23.64136 45.56908 36996 ft 563 kts 100°
2026-05-09 11:49 23.63415 45.65430 36990 ft 563 kts 100°
2026-05-09 11:50 23.62689 45.73941 36984 ft 564 kts 100°
2026-05-09 11:50 23.61958 45.82457 36984 ft 564 kts 100°
2026-05-09 11:51 23.61223 45.90962 36986 ft 564 kts 100°
2026-05-09 11:51 23.60483 45.99476 36985 ft 564 kts 100°
2026-05-09 11:52 23.59742 46.07947 36984 ft 564 kts 100°
2026-05-09 11:52 23.58992 46.16460 36989 ft 564 kts 100°
2026-05-09 11:53 23.58240 46.24959 36991 ft 563 kts 100°
2026-05-09 11:53 23.57480 46.33469 36995 ft 563 kts 100°
2026-05-09 11:54 23.56718 46.41954 36996 ft 563 kts 100°
2026-05-09 11:54 23.55951 46.50465 36992 ft 563 kts 100°
2026-05-09 11:55 23.55179 46.58953 36990 ft 563 kts 100°
2026-05-09 11:56 23.52844 46.84351 36967 ft 562 kts 101°
2026-05-09 11:57 23.52055 46.92828 36963 ft 562 kts 101°
2026-05-09 11:57 23.51262 47.01301 36959 ft 562 kts 101°
2026-05-09 11:58 23.50463 47.09782 36953 ft 562 kts 101°
2026-05-09 11:58 23.49661 47.18254 36948 ft 562 kts 101°
2026-05-09 11:59 23.48855 47.26714 36943 ft 562 kts 101°
2026-05-09 11:59 23.48044 47.35180 36945 ft 561 kts 101°
2026-05-09 12:00 23.47228 47.43644 36938 ft 561 kts 101°
2026-05-09 12:00 23.46408 47.52101 36934 ft 561 kts 101°
2026-05-09 12:01 23.45584 47.60559 36933 ft 561 kts 101°
2026-05-09 12:01 23.44761 47.68962 36927 ft 562 kts 101°
2026-05-09 12:02 23.43926 47.77431 36923 ft 562 kts 101°
2026-05-09 12:02 23.43087 47.85903 36916 ft 562 kts 100°
2026-05-09 12:03 23.42243 47.94371 36912 ft 563 kts 101°
2026-05-09 12:03 23.41395 48.02843 36907 ft 562 kts 101°
2026-05-09 12:04 23.40548 48.11248 36905 ft 562 kts 101°
2026-05-09 12:04 23.39693 48.19695 36895 ft 562 kts 101°
2026-05-09 12:05 23.38832 48.28152 36892 ft 562 kts 101°
2026-05-09 12:05 23.38100 48.36621 36893 ft 564 kts 96°
2026-05-09 12:06 23.37779 48.45152 36894 ft 564 kts 96°
2026-05-09 12:06 23.37438 48.53684 36891 ft 564 kts 96°
2026-05-09 12:07 23.37088 48.62209 36891 ft 565 kts 96°
2026-05-09 12:07 23.36734 48.70720 36883 ft 562 kts 96°
2026-05-09 12:08 23.36375 48.79230 36878 ft 562 kts 96°
2026-05-09 12:08 23.36013 48.87729 36880 ft 562 kts 96°
2026-05-09 12:09 23.35646 48.96225 36874 ft 561 kts 96°
2026-05-09 12:09 23.35277 49.04657 36879 ft 561 kts 96°
2026-05-09 12:10 23.34521 49.21600 36875 ft 560 kts 96°
2026-05-09 12:11 23.34138 49.30082 36870 ft 560 kts 96°
2026-05-09 12:11 23.33751 49.38538 36875 ft 559 kts 96°
2026-05-09 12:12 23.33359 49.46985 36867 ft 559 kts 96°
2026-05-09 12:12 23.32962 49.55433 36871 ft 558 kts 96°
2026-05-09 12:13 23.32565 49.63817 36871 ft 558 kts 96°
2026-05-09 12:13 23.32160 49.72254 36870 ft 557 kts 96°
2026-05-09 12:14 23.31750 49.80688 36868 ft 557 kts 96°
2026-05-09 12:14 23.31337 49.89097 36866 ft 557 kts 96°
2026-05-09 12:15 23.30920 49.97514 36864 ft 556 kts 96°
2026-05-09 12:15 23.30501 50.05869 36868 ft 556 kts 96°
2026-05-09 12:16 23.30076 50.14258 36863 ft 556 kts 96°
2026-05-09 12:16 23.29646 50.22655 36865 ft 556 kts 96°
2026-05-09 12:17 23.29211 50.31044 36861 ft 556 kts 96°
2026-05-09 12:17 23.28773 50.39438 36868 ft 555 kts 96°
2026-05-09 12:18 23.28329 50.47838 36866 ft 555 kts 96°
2026-05-09 12:18 23.27882 50.56214 36863 ft 555 kts 96°
2026-05-09 12:19 23.27431 50.64587 36861 ft 555 kts 96°
2026-05-09 12:19 23.26974 50.72970 36862 ft 555 kts 96°
2026-05-09 12:20 23.26514 50.81344 36863 ft 554 kts 96°
2026-05-09 12:20 23.26053 50.89657 36859 ft 554 kts 96°
2026-05-09 12:21 23.25585 50.98017 36857 ft 554 kts 96°
2026-05-09 12:21 23.25112 51.06378 36856 ft 554 kts 96°
2026-05-09 12:22 23.24637 51.14717 36855 ft 553 kts 96°
2026-05-09 12:22 23.24153 51.23077 36855 ft 553 kts 96°
2026-05-09 12:23 23.23662 51.31427 36855 ft 553 kts 96°
2026-05-09 12:23 23.23154 51.39764 36857 ft 552 kts 98°
2026-05-09 12:24 23.21720 51.47919 36860 ft 546 kts 110°
2026-05-09 12:24 23.19026 51.55565 36858 ft 541 kts 117°
2026-05-09 12:25 23.16095 51.63103 36862 ft 541 kts 116°
2026-05-09 12:25 23.13192 51.70591 36858 ft 541 kts 116°
2026-05-09 12:26 23.10265 51.78109 36862 ft 540 kts 116°
2026-05-09 12:26 23.07336 51.85617 36861 ft 540 kts 116°
2026-05-09 12:27 23.04399 51.93134 36864 ft 540 kts 116°
2026-05-09 12:27 23.01465 52.00631 36860 ft 539 kts 116°
2026-05-09 12:28 22.98535 52.08108 36852 ft 538 kts 116°
2026-05-09 12:28 22.95600 52.15587 36855 ft 538 kts 116°
2026-05-09 12:29 22.92663 52.23059 36868 ft 538 kts 116°
2026-05-09 12:29 22.90228 52.29247 36846 ft 537 kts 116°
2026-05-09 12:30 22.86805 52.37927 36856 ft 537 kts 116°
2026-05-09 12:30 22.82749 52.49244 36847 ft 541 kts 108°
2026-05-09 12:31 22.81112 52.60053 36852 ft 544 kts 100°
2026-05-09 12:32 22.80141 52.68124 36849 ft 544 kts 100°
2026-05-09 12:32 22.79151 52.76244 36847 ft 543 kts 100°
2026-05-09 12:33 22.78160 52.84366 36845 ft 543 kts 100°
2026-05-09 12:33 22.77166 52.92484 36834 ft 543 kts 100°
2026-05-09 12:34 22.76169 53.00590 36837 ft 542 kts 100°
2026-05-09 12:34 22.75169 53.08691 36840 ft 542 kts 100°
2026-05-09 12:35 22.74165 53.16782 36835 ft 541 kts 100°
2026-05-09 12:35 22.73165 53.24809 36835 ft 541 kts 100°
2026-05-09 12:36 22.72155 53.32888 36826 ft 541 kts 100°
2026-05-09 12:36 22.71141 53.40963 36826 ft 541 kts 100°
2026-05-09 12:37 22.70124 53.49025 36827 ft 540 kts 100°
2026-05-09 12:37 22.69120 53.56959 36826 ft 539 kts 100°
2026-05-09 12:38 22.68099 53.65001 36823 ft 540 kts 100°
2026-05-09 12:38 22.67071 53.73062 36820 ft 539 kts 100°
2026-05-09 12:39 22.66043 53.81093 36816 ft 539 kts 100°
2026-05-09 12:39 22.65009 53.89142 36818 ft 539 kts 100°
2026-05-09 12:40 22.63973 53.97163 36816 ft 538 kts 100°
2026-05-09 12:40 22.62932 54.05201 36814 ft 538 kts 100°
2026-05-09 12:41 22.61889 54.13216 36810 ft 538 kts 100°
2026-05-09 12:41 22.60842 54.21238 36812 ft 538 kts 100°
2026-05-09 12:42 22.59792 54.29248 36805 ft 538 kts 100°
2026-05-09 12:42 22.58737 54.37242 36804 ft 537 kts 100°
2026-05-09 12:43 22.57676 54.45256 36801 ft 538 kts 100°
2026-05-09 12:43 22.56619 54.53209 36800 ft 537 kts 100°
2026-05-09 12:44 22.55552 54.61203 36800 ft 537 kts 100°
2026-05-09 12:44 22.54480 54.69206 36794 ft 537 kts 100°
2026-05-09 12:45 22.53404 54.77211 36792 ft 537 kts 100°
2026-05-09 12:45 22.52326 54.85203 36790 ft 538 kts 100°
2026-05-09 12:46 22.51241 54.93210 36792 ft 538 kts 100°
2026-05-09 12:46 22.50151 55.01221 36788 ft 537 kts 100°
2026-05-09 12:47 22.49059 55.09226 36794 ft 537 kts 100°
2026-05-09 12:47 22.47971 55.17166 36795 ft 537 kts 100°
2026-05-09 12:48 22.46870 55.25164 36792 ft 538 kts 100°
2026-05-09 12:48 22.45934 55.33235 36794 ft 540 kts 92°
2026-05-09 12:49 22.46772 55.41163 36797 ft 542 kts 75°
2026-05-09 12:49 22.47786 55.44671 36125 ft 545 kts 70°
2026-05-09 12:49 22.49165 55.48445 36101 ft 528 kts 68°
2026-05-09 12:50 22.51914 55.55591 36239 ft 525 kts 67°
2026-05-09 12:50 22.53325 55.59263 36488 ft 528 kts 68°
2026-05-09 12:50 22.54514 55.63027 36758 ft 530 kts 77°
2026-05-09 12:50 22.55092 55.66933 36805 ft 526 kts 88°
2026-05-09 12:51 22.55023 55.70847 36807 ft 528 kts 97°
2026-05-09 12:51 22.54280 55.78880 36800 ft 541 kts 97°
2026-05-09 12:52 22.53555 55.86898 36803 ft 539 kts 97°
2026-05-09 12:52 22.52854 55.94973 36801 ft 540 kts 97°
2026-05-09 12:53 22.52156 56.03056 36805 ft 540 kts 97°
2026-05-09 12:53 22.51451 56.11150 36803 ft 540 kts 97°
2026-05-09 12:54 22.50741 56.19235 36802 ft 540 kts 97°
2026-05-09 12:54 22.50026 56.27305 36803 ft 539 kts 97°
2026-05-09 12:55 22.49307 56.35384 36803 ft 540 kts 97°
2026-05-09 12:55 22.48584 56.43457 36807 ft 539 kts 97°
2026-05-09 12:56 22.47857 56.51534 36811 ft 540 kts 97°
2026-05-09 12:56 22.47125 56.59615 36810 ft 540 kts 97°
2026-05-09 12:57 22.46390 56.67689 36809 ft 539 kts 97°
2026-05-09 12:57 22.45650 56.75765 36815 ft 539 kts 97°
2026-05-09 12:58 22.44908 56.83826 36813 ft 538 kts 97°
2026-05-09 12:58 22.44162 56.91880 36815 ft 538 kts 97°
2026-05-09 12:59 22.43417 56.99881 36818 ft 538 kts 97°
2026-05-09 12:59 22.42664 57.07924 36822 ft 538 kts 97°
2026-05-09 13:00 22.41907 57.15969 36822 ft 538 kts 97°
2026-05-09 13:00 22.41146 57.24017 36826 ft 538 kts 97°
2026-05-09 13:01 22.40382 57.32053 36827 ft 538 kts 97°
2026-05-09 13:01 22.39612 57.40103 36829 ft 538 kts 97°
2026-05-09 13:02 22.38839 57.48141 36826 ft 538 kts 97°
2026-05-09 13:02 22.38063 57.56180 36824 ft 538 kts 97°
2026-05-09 13:03 22.37281 57.64221 36818 ft 538 kts 97°
2026-05-09 13:03 22.36497 57.72256 36817 ft 538 kts 97°
2026-05-09 13:04 22.35714 57.80238 36812 ft 537 kts 97°
2026-05-09 13:04 22.34922 57.88263 36809 ft 537 kts 97°
2026-05-09 13:05 22.34127 57.96279 36808 ft 537 kts 97°
2026-05-09 13:05 22.33328 58.04301 36808 ft 537 kts 97°
2026-05-09 13:06 22.32525 58.12318 36813 ft 537 kts 97°
2026-05-09 13:06 22.31719 58.20324 36811 ft 536 kts 97°
2026-05-09 13:07 22.30909 58.28329 36812 ft 536 kts 97°
2026-05-09 13:07 22.30096 58.36323 36808 ft 536 kts 97°
2026-05-09 13:08 22.29279 58.44328 36810 ft 536 kts 97°
2026-05-09 13:08 22.28457 58.52331 36811 ft 535 kts 97°
2026-05-09 13:09 22.27633 58.60320 36811 ft 535 kts 97°
2026-05-09 13:09 22.26805 58.68306 36806 ft 535 kts 97°
2026-05-09 13:10 22.25979 58.76236 36809 ft 535 kts 97°